Погода Тарко-Сале

Погода Тарко-Сале : погода сейчас, прогноз погоды и архив. Всё, что Вы хотите узнать о погоде Тарко-Сале!

Хотите узнать прогноз погоды Тарко-Сале? Тогда Вам сюда: Погода Тарко-Сале

Поиск расширенной информации на нашем сайте:

Другие новости

Новости СМИ2

Главная страница сайта

Новости сайта

03.07.2017

Напоминаем, что на нашем специализированном сайте Метеоцентр.Азия вы можете получить высокодетализированные автоматические прогнозы погоды по пунктам России, СНГ и мира в авиационном формате (включающие направление и скорость ветра, видимость, явления погоды, количество и форму облачности, нижнюю и верхнюю границу облачности).

Рекомендуем: http://china-dv.ru/ заказать и купить болюсы хуато.

Погода Тарко-Сале - сегодня

Время (UTC), дата Ветер
(°,м/с) 
Видим.   Явления Облачность Т
(°С)
Тd
(°С)
f(%) Тe
(°С)
Pmin
(гПа)
dP
(гПа)
Po
(мм)
O2
(г/м3)
Тmin Tmax R s Состояние
почвы
03 11.10.18 170 (Ю) 4000 м  слаб. ливневой снег  10/10 270 м кучево-дожд. 
[Cb cap]
+1 -0 93 1001.4  -1.4  749  300  +0.3    0.0     
09 11.10.18 130 (ЮВ) 10 км    10/8 600 м кучево-дожд., средняя 
[Cb cap|Ac As]
+4.3 +0.4 76 +3  997.2  -2.4  746  296           
15 11.10.18 140 (ЮВ) 4000 м  слаб. ливневой дождь  10/10 100 м кучево-дожд. 
[Cb cap]
+1 +1 100 -1  994.1  -2  743  298    +4.4     
03 12.10.18 240 (ЮЗ) 10 км  слаб. дождь{ливн. осадки}  10/10 60 м 
[Frnb]
+0.5 +0.5 100 +1  988.4  -0.6  739  297  +0.5       
15 12.10.18 250 (З) 4000 м  слаб. снег [диам. отлож. мокр. снега 2 мм]  10/10 100 м 
[Frnb|Ns]
+0.3 +0.3 100 +1  993.4  1.7  743  299    +1.6  0.5     
00 13.10.18 220 (ЮЗ) 10 км  {снег}  10/8 300 м средняя, верхняя 
[St|As trans|Ci ing]
-1.8 -2.6 94 -1  997.7  1.7  746  303           
03 13.10.18 180 (Ю) 10 км    10/3 300 м верхняя 
[Sc|Cc]
-2 -3.8 87 -1  999.3  1.6  747  304  -2.3    0.4  <0.5  равномерный
сухой снег
100% 
06 13.10.18 тихо ()   10 км    10/8 360 м верхняя 
[Sc|Ci fib]
-0.9 -3.5 82 -1  1000.3  748  303           
09 13.10.18 110 (В) 10 км    10/10 450 м кучево-дожд. 
[Cb cap]
-0.8 -4 79 1001.3  0.9  749  303           
12 13.10.18 070 (В) 10 км    10/10 360 м кучево-дожд. 
[Cb cap]
-1.7 -4.2 83 -1  1001.8  0.5  749  304           
15 13.10.18 330 (СЗ) 10 км    9/9 420 м кучево-дожд. 
[Cb cap]
-1.9 -4.3 84 -1  1002.4  0.6  749  305    -0.4       
18 13.10.18 330 (СЗ) 10 км    10/10 500 м кучево-дожд. 
[Cb cap]
-2.6 -3 97 -4  1001.3  -1.1  749  305           
21 13.10.18 320 (СЗ) 10 км    10/10 720 м кучево-дожд. 
[Cb cap]
-2.4 -3.3 94 -3  1001.1  -0.2  748  305           
00 14.10.18 310 (СЗ) 10 км    10/10 750 м кучево-дожд. 
[Cb cap]
-2.2 -3.5 91 -3  1000.2  -0.9  748  304           
03 14.10.18 300 (СЗ) 10 км    10/6 700 м средняя 
[Sc|Ac As]
-2 -4.3 84 -5  1000.7  0.5  748  304  -2.6         
06 14.10.18 280 (З) 10 км    10/0 средняя 
[Ac As]
-1.2 -4 81 -3  1003.5  2.9  750  304  -2.1         
09 14.10.18 260 (З) 10 км    9/3 600 м средняя, верхняя 
[Sc|Ac As|Ci fib]
+0.5 -4.1 71 -1  1007.1  3.5  753  303           
12 14.10.18 240 (ЮЗ) 10 км    10/4 1000 м средняя 
[Sc|Ac trans]
-1.1 -4.6 77 -3  1010.7  3.6  756  306           
18 14.10.18 200 (Ю) 10 км    ясно 
-4.3 -4.6 98 -4  1014.5  1.4  758  311           
21 14.10.18 190 (Ю) 10 км    8/0 средняя 
[Ac cast]
-3.2 -4.1 93 -3  1015.3  0.8  759  310           
00 15.10.18 210 (ЮЗ) 10 км    10/0 средняя 
[Ac und]
-2.4 -2.9 96 -2  1016.2  0.9  760  309           
03 15.10.18 210 (ЮЗ) 10 км    10/0 средняя, верхняя 
[Ac trans|Ci fib]
-2.2 -2.4 99 -2  1017.4  1.1  761  309  -4.5         
06 15.10.18 220 (ЮЗ) 10 км    9/3 270 м средняя, верхняя 
[Sc|Ac trans|Ci fib]
-0.4 -2.3 87 1018.2  0.9  761  307           
09 15.10.18 220 (ЮЗ) 10 км    10/0 средняя, верхняя 
[Ac As|Ci fib]
+1.4 -4.1 67 +1  1018.7  0.5  762  306           
12 15.10.18 210 (ЮЗ) 10 км    10/4 500 м средняя, верхняя 
[Sc|Ac As|Ci fib]
-0.7 -3.2 83 1019.9  1.1  762  308           
Время (UTC), дата Ветер
(°,м/с) 
Видим.   Явления Облачность Т
(°С)
Тd
(°С)
f(%) Тe
(°С)
Pmin
(гПа)
dP
(гПа)
Po
(мм)
O2
(г/м3)
Тmin Tmax R s Состояние
почвы

Для получения пояснительной информации подведите курсор к названию столбца.

ПОГОДА Тарко-Сале - архив

Всё, что Вы хотите узнать о погоде Тарко-Сале - удобно и подробно!

Выберите нужную дату (начиная с 1 января 2015* года) и нажмите кнопку "Найти".
Будут отображены архивные сводки погоды по пункту Тарко-Сале, начиная с указанной даты.


Отображать данные в формате CSV (для использования в таблицах Excel)


Внимание! Наш архив погоды предназначен исключительно для личного некоммерческого использования в познавательных целях. Если Вам необходимы официальные справки о состоянии погоды (для производственных, юридических, коммерческих и т.п. целей), обращайтесь в органы Росгидромета.

*Примечание: данная дата относится к архиву по метеостанциям СССР (Россия, СНГ, Балтия).
Архив по метеостанциям Зарубежной Европы и Азии (кроме Китая) хранится 10 дней, по другим регионам земного шара (Китай, Африка, Америка, Австралия, Океания) - 1 день.

Тарко-Сале - район местоположения метеостанции


Название, широта, долгота, высота метеостанции:
Тарко-Сале 64.9°ш. 77.8°д. 27 м над ур. моря [Российская Федерация]

Дополнительная информация

В oтличие oт бoльшинства пoгoдных сайтoв мы публикуем пoдрoбную метеoинфoрмацию в детальнoм прoфессиoнальнoм фoрмате.

Характеристики температуры и влажнoсти вoздуха измеряются на высoте 2 м в тени вдали oт зданий и деревьев.
Скoрoсть ветра измеряется на высoте 10 м (на урoвне рoста челoвека скoрoсть ветра ниже в 1.5-2 раза). Если метеoстанция нахoдится в гoрoде или в лесу, тo скoрoсть ветра занижена на 2-4 м/с пo сравнению с oткрытым местoм. Скoрoсть ветра над акватoриями крупных рек и oзёр, а также на вершинах хoлмoв на 2-5 м/с выше, чем в oбычных услoвиях.
Атмoсфернoе давление в разных тoчках местнoсти мoжет значительнo oтличаться oт давления на метеoстанции, в зависимoсти oт услoвий рельефа (при пoдъёме на 10 м давление пoнижается примернo на 1 мм рт.ст.).